When you browse on this site, cookies collect data to enhance your experience and personalize the content and advertising you see.
Visit our Privacy Policy to learn more. By continuing to use the site, you agree to this use of cookies and data.
EN

Hourly Weather Safaga

Today, 15 July, Wednesday

Time Temperature Precipitation Wind Pressure Humidity
00:00 +26°C° 0 mm 1 mps 699 mmHg 30%
01:00 +23°C° 0 mm 0 mps 699 mmHg 31%
02:00 +23°C° 0 mm 0 mps 699 mmHg 32%
03:00 +24°C° 0 mm 1 mps 699 mmHg 32%
04:00 +24°C° 0 mm 1 mps 699 mmHg 32%
05:00 +24°C° 0 mm 1 mps 700 mmHg 33%
06:00 +27°C° 0 mm 1 mps 700 mmHg 27%
07:00 +30°C° 0 mm 1 mps 701 mmHg 22%
08:00 +34°C° 0 mm 1 mps 702 mmHg 17%
09:00 +36°C° 0 mm 2 mps 702 mmHg 14%
10:00 +38°C° 0 mm 2 mps 702 mmHg 12%
11:00 +39°C° 0 mm 2 mps 703 mmHg 9%
12:00 +40°C° 0 mm 3 mps 702 mmHg 10%
13:00 +41°C° 0 mm 4 mps 702 mmHg 10%
14:00 +42°C° 0 mm 5 mps 701 mmHg 10%
15:00 +42°C° 0 mm 5 mps 701 mmHg 10%
16:00 +41°C° 0 mm 4 mps 701 mmHg 10%
17:00 +41°C° 0 mm 4 mps 700 mmHg 10%
18:00 +37°C° 0 mm 3 mps 700 mmHg 15%
19:00 +34°C° 0 mm 2 mps 700 mmHg 19%
20:00 +30°C° 0 mm 1 mps 700 mmHg 24%
21:00 +30°C° 0 mm 2 mps 700 mmHg 23%
22:00 +29°C° 0 mm 3 mps 700 mmHg 22%
23:00 +29°C° 0 mm 3 mps 700 mmHg 22%

Tomorrow, 16 July, Thursday

Time Temperature Precipitation Wind Pressure Humidity
00:00 +28°C° 0 mm 3 mps 699 mmHg 22%
01:00 +28°C° 0 mm 3 mps 699 mmHg 22%
02:00 +27°C° 0 mm 2 mps 699 mmHg 23%
03:00 +26°C° 0 mm 2 mps 699 mmHg 25%
04:00 +25°C° 0 mm 1 mps 699 mmHg 27%
05:00 +25°C° 0 mm 1 mps 698 mmHg 30%
06:00 +28°C° 0 mm 1 mps 699 mmHg 26%
07:00 +31°C° 0 mm 2 mps 700 mmHg 21%
08:00 +35°C° 0 mm 2 mps 700 mmHg 17%
09:00 +37°C° 0 mm 3 mps 700 mmHg 15%
10:00 +39°C° 0 mm 3 mps 700 mmHg 14%
11:00 +41°C° 0 mm 4 mps 700 mmHg 12%
12:00 +42°C° 0 mm 5 mps 700 mmHg 11%
13:00 +43°C° 0 mm 5 mps 700 mmHg 11%
14:00 +44°C° 0 mm 6 mps 699 mmHg 11%
15:00 +44°C° 0 mm 6 mps 699 mmHg 11%
16:00 +43°C° 0 mm 7 mps 699 mmHg 11%
17:00 +43°C° 0 mm 7 mps 698 mmHg 12%
18:00 +39°C° 0 mm 7 mps 698 mmHg 13%
19:00 +36°C° 0 mm 7 mps 698 mmHg 15%
20:00 +34°C° 0 mm 7 mps 698 mmHg 16%
21:00 +32°C° 0 mm 6 mps 698 mmHg 18%
22:00 +30°C° 0 mm 5 mps 698 mmHg 20%
23:00 +29°C° 0 mm 4 mps 698 mmHg 21%

Day after tomorrow, 17 July, Friday

Time Temperature Precipitation Wind Pressure Humidity
00:00 +28°C° 0 mm 3 mps 698 mmHg 24%
01:00 +27°C° 0 mm 3 mps 697 mmHg 28%
02:00 +25°C° 0 mm 2 mps 697 mmHg 31%
03:00 +25°C° 0 mm 2 mps 697 mmHg 33%
04:00 +24°C° 0 mm 1 mps 697 mmHg 35%
05:00 +23°C° 0 mm 1 mps 697 mmHg 38%
06:00 +26°C° 0 mm 1 mps 697 mmHg 33%
07:00 +29°C° 0 mm 1 mps 698 mmHg 28%
08:00 +32°C° 0 mm 1 mps 699 mmHg 23%
09:00 +34°C° 0 mm 2 mps 699 mmHg 21%
10:00 +36°C° 0 mm 3 mps 699 mmHg 18%
11:00 +38°C° 0 mm 3 mps 699 mmHg 16%
12:00 +38°C° 0 mm 3 mps 699 mmHg 16%
13:00 +40°C° 0 mm 4 mps 699 mmHg 15%
14:00 +41°C° 0 mm 4 mps 698 mmHg 14%
15:00 +40°C° 0 mm 4 mps 698 mmHg 15%
16:00 +40°C° 0 mm 4 mps 698 mmHg 16%
17:00 +38°C° 0 mm 4 mps 698 mmHg 16%
18:00 +36°C° 0 mm 3 mps 698 mmHg 19%
19:00 +34°C° 0 mm 3 mps 698 mmHg 23%
20:00 +31°C° 0 mm 3 mps 698 mmHg 26%
21:00 +29°C° 0 mm 3 mps 698 mmHg 27%
22:00 +28°C° 0 mm 2 mps 698 mmHg 28%
23:00 +27°C° 0 mm 2 mps 698 mmHg 28%

18 July, Saturday

Time Temperature Precipitation Wind Pressure Humidity
00:00 +27°C° 0 mm 2 mps 698 mmHg 30%
01:00 +26°C° 0 mm 1 mps 698 mmHg 31%
02:00 +25°C° 0 mm 1 mps 697 mmHg 32%
03:00 +25°C° 0 mm 1 mps 698 mmHg 35%
04:00 +24°C° 0 mm 1 mps 698 mmHg 39%
05:00 +24°C° 0 mm 2 mps 698 mmHg 42%
06:00 +27°C° 0 mm 2 mps 698 mmHg 38%
07:00 +29°C° 0 mm 2 mps 699 mmHg 33%
08:00 +31°C° 0 mm 2 mps 700 mmHg 29%
09:00 +34°C° 0 mm 3 mps 700 mmHg 26%
10:00 +35°C° 0 mm 3 mps 700 mmHg 23%
11:00 +37°C° 0 mm 3 mps 700 mmHg 20%
12:00 +37°C° 0 mm 3 mps 700 mmHg 20%
13:00 +38°C° 0 mm 3 mps 699 mmHg 19%
14:00 +39°C° 0 mm 3 mps 699 mmHg 18%
15:00 +38°C° 0 mm 3 mps 699 mmHg 19%
16:00 +38°C° 0 mm 4 mps 699 mmHg 19%
17:00 +38°C° 0 mm 4 mps 699 mmHg 20%
18:00 +35°C° 0 mm 3 mps 699 mmHg 26%
19:00 +33°C° 0 mm 3 mps 699 mmHg 32%
20:00 +29°C° 0 mm 2 mps 699 mmHg 38%
21:00 +28°C° 0 mm 2 mps 699 mmHg 38%
22:00 +28°C° 0 mm 1 mps 699 mmHg 37%
23:00 +27°C° 0 mm 1 mps 699 mmHg 36%

19 July, Sunday

Time Temperature Precipitation Wind Pressure Humidity
00:00 +27°C° 0 mm 1 mps 699 mmHg 36%
01:00 +27°C° 0 mm 1 mps 699 mmHg 37%
02:00 +26°C° 0 mm 1 mps 699 mmHg 37%
03:00 +26°C° 0 mm 2 mps 699 mmHg 39%
04:00 +25°C° 0 mm 2 mps 699 mmHg 41%
05:00 +25°C° 0 mm 2 mps 699 mmHg 42%
06:00 +28°C° 0 mm 2 mps 699 mmHg 36%
07:00 +30°C° 0 mm 2 mps 700 mmHg 30%
08:00 +34°C° 0 mm 2 mps 700 mmHg 25%
09:00 +35°C° 0 mm 2 mps 700 mmHg 21%
10:00 +37°C° 0 mm 2 mps 701 mmHg 18%
11:00 +39°C° 0 mm 2 mps 701 mmHg 15%
12:00 +39°C° 0 mm 3 mps 701 mmHg 15%
13:00 +40°C° 0 mm 3 mps 700 mmHg 15%
14:00 +41°C° 0 mm 4 mps 700 mmHg 15%
15:00 +41°C° 0 mm 4 mps 700 mmHg 15%
16:00 +40°C° 0 mm 4 mps 699 mmHg 16%
17:00 +38°C° 0 mm 4 mps 699 mmHg 17%
18:00 +36°C° 0 mm 3 mps 699 mmHg 19%
19:00 +34°C° 0 mm 3 mps 699 mmHg 21%
20:00 +30°C° 0 mm 2 mps 699 mmHg 23%
21:00 +30°C° 0 mm 1 mps 699 mmHg 24%
22:00 +29°C° 0 mm 1 mps 699 mmHg 24%
23:00 +27°C° 0 mm 0 mps 699 mmHg 25%

20 July, Monday

Time Temperature Precipitation Wind Pressure Humidity
00:00 +29°C° 0 mm 1 mps 699 mmHg 25%
01:00 +29°C° 0 mm 2 mps 698 mmHg 25%
02:00 +29°C° 0 mm 3 mps 698 mmHg 25%
03:00 +28°C° 0 mm 2 mps 698 mmHg 28%
04:00 +27°C° 0 mm 2 mps 698 mmHg 30%
05:00 +26°C° 0 mm 1 mps 698 mmHg 32%
06:00 +29°C° 0 mm 1 mps 699 mmHg 28%
07:00 +32°C° 0 mm 1 mps 700 mmHg 23%
08:00 +33°C° 0 mm 0 mps 700 mmHg 18%
09:00 +38°C° 0 mm 2 mps 701 mmHg 16%
10:00 +40°C° 0 mm 3 mps 701 mmHg 13%
11:00 +43°C° 0 mm 4 mps 701 mmHg 11%
12:00 +44°C° 0 mm 4 mps 701 mmHg 10%
13:00 +45°C° 0 mm 4 mps 700 mmHg 10%
14:00 +46°C° 0 mm 5 mps 700 mmHg 10%
15:00 +46°C° 0 mm 5 mps 700 mmHg 10%
16:00 +45°C° 0 mm 5 mps 700 mmHg 11%
17:00 +45°C° 0 mm 5 mps 699 mmHg 11%
18:00 +42°C° 0 mm 5 mps 699 mmHg 13%
19:00 +40°C° 0 mm 5 mps 699 mmHg 14%
20:00 +38°C° 0 mm 6 mps 699 mmHg 16%
21:00 +36°C° 0 mm 6 mps 699 mmHg 17%
22:00 +35°C° 0 mm 7 mps 699 mmHg 19%
23:00 +34°C° 0 mm 8 mps 699 mmHg 20%
Show more